This demonstration page uses our WeatherBlox Daily Observations layout. Learn more.

Left ArrowRight Arrow

39.08367, -84.50855

Hourly Observations for August 25, 2017

Temp ( °F °C ) Dew Point ( °F °C ) Humidity (%) Winds ( mph kmh ) Pressure ( in mb ) Visibility ( mi km ) Precip ( " mm )
12:53 am 00:53 Clear 58 14.4 57 13.9 97 97 N N/A 30.11 1020 10 16.0934 N/A
1:53 am 01:53 Clear 57 13.9 56 13.3 96 96 N N/A 30.12 1020 10 16.0934 N/A
2:53 am 02:53 Mostly Cloudy 56 13.3 55 12.8 97 97 N N/A 30.14 1021 10 16.0934 N/A
3:53 am 03:53 Partly Cloudy 56 13.3 56 13.3 100 100 N N/A 30.14 1021 10 16.0934 N/A
4:53 am 04:53 Clear 56 13.3 55 12.8 97 97 ENE 3 6 30.15 1021 10 16.0934 N/A
5:53 am 05:53 Clear 55 12.8 54 12.2 96 96 N N/A 30.17 1022 10 16.0934 N/A
6:53 am 06:53 Clear 54 12.2 54 12.2 100 100 NE 3 6 30.18 1022 10 16.0934 N/A
7:53 am 07:53 Sunny 56 13.3 55 12.8 97 97 N N/A 30.2 1023 10 16.0934 N/A
8:53 am 08:53 Sunny 61 16.1 56 13.3 84 84 NE 6 9 30.21 1023 10 16.0934 N/A
9:53 am 09:53 Mostly Sunny 64 17.8 56 13.3 75 75 NE 6 9 30.22 1023 10 16.0934 N/A
10:53 am 10:53 Mostly Sunny 69 20.6 57 13.9 66 66 E 5 7 30.22 1023 10 16.0934 N/A
11:53 am 11:53 Mostly Sunny 72 22.2 56 13.3 57 57 NE 7 11 30.22 1023 10 16.0934 N/A
12:53 pm 12:53 Partly Cloudy 73 22.8 56 13.3 55 55 NE 3 6 30.22 1023 10 16.0934 N/A
1:53 pm 13:53 Partly Cloudy 75 23.9 56 13.3 52 52 NE 7 11 30.22 1023 10 16.0934 N/A
2:53 pm 14:53 Sunny 77 25 54 12.2 45 45 VRB 3 6 30.2 1023 10 16.0934 N/A
3:53 pm 15:53 Mostly Sunny 75 23.9 53 11.7 46 46 ENE 7 11 30.18 1022 10 16.0934 N/A
4:53 pm 16:53 Mostly Sunny 77 25 51 10.6 40 40 NE 9 15 30.18 1022 10 16.0934 N/A
5:53 pm 17:53 Mostly Sunny 76 24.4 52 11.1 43 43 NE 7 11 30.17 1022 10 16.0934 N/A
6:53 pm 18:53 Mostly Sunny 74 23.3 54 12.2 50 50 NE 6 9 30.19 1022 10 16.0934 N/A
7:53 pm 19:53 Sunny 69 20.6 55 12.8 61 61 NE 5 7 30.2 1023 10 16.0934 N/A
8:53 pm 20:53 Clear 63 17.2 57 13.9 81 81 N N/A 30.21 1023 10 16.0934 N/A
9:53 pm 21:53 Clear 60 15.6 57 13.9 90 90 N N/A 30.22 1024 10 16.0934 N/A
10:53 pm 22:53 Clear 58 14.4 57 13.9 97 97 NE 3 6 30.23 1024 10 16.0934 N/A
11:53 pm 23:53 Clear 57 13.9 56 13.3 96 96 N N/A 30.24 1024 10 16.0934 N/A

Powered by AerisWeather